Location: ?ejeti?ky
(50.4060°N, 14.9016°E)
Time: 15:43:07
(UTC+00:00)

Tiangong - Visible Passes

Search period start: 25 September 2021 00:00
Search period end: 05 October 2021 00:00
Orbit: 382 x 385 km, 41.5° (Epoch: 25 September)

Date Brightness Start Highest point End Pass type
(mag) Time Alt. Az. Time Alt. Az. Time Alt. Az.
28 Sep 3.9 03:39:57 10° S 03:40:30 10° SSE 03:41:03 10° SSE visible
29 Sep 3.5 04:14:54 10° SSW 04:16:52 15° S 04:18:49 10° SE visible
30 Sep 3.5 03:16:39 13° S 03:17:11 13° SSE 03:18:46 10° SE visible
01 Oct 3.3 03:51:49 12° SW 03:53:34 16° S 03:55:40 10° SE visible
02 Oct 3.6 02:54:46 14° SSE 02:54:46 14° SSE 02:55:49 10° SE visible
03 Oct 3.1 03:29:56 16° SSW 03:30:15 16° S 03:32:20 10° SE visible
04 Oct 3.5 04:05:10 10° SW 04:06:37 13° SSW 04:08:04 10° SSE visible
